K3MJW-2 Weather Reports


Display with metric or nautical units.
time (UTC)temp
F
wind
direction
speed
MPH
gust
MPH
rain 1hr
in
rain 24hr
in
rain mn
in
humidity
%
barometer
mb
20170925204020 86 199 0.0 0.0 0.00 0.00 0.00 13 1012.4
20170925204003 86 199 0.0 0.0 0.00 0.00 0.00 13 1012.4
20170925203020 85 199 0.0 0.0 0.00 0.00 0.00 14 1012.5
20170925203004 85 199 0.0 6.0 0.00 0.00 0.00 14 1012.5
20170925202020 86 0 0.0 0.0 0.00 0.00 0.00 14 1012.6
20170925202004 86 0 0.0 0.0 0.00 0.00 0.00 14 1012.6
20170925201004 86 311 0.0 0.0 0.00 0.00 0.00 15 1012.7
20170925200950 86 311 0.0 0.0 0.00 0.00 0.00 16 1012.7
20170925200003 85 311 0.0 0.0 0.00 0.00 0.00 14 1012.7
20170925195921 85 311 0.0 0.0 0.00 0.00 0.00 14 1012.8
20170925195003 86 311 0.0 0.0 0.00 0.00 0.00 15 1012.9
20170925194851 86 311 0.0 0.0 0.00 0.00 0.00 14 1012.9
20170925194003 86 311 0.0 0.0 0.00 0.00 0.00 17 1013.0
20170925193850 86 311 0.0 0.0 0.00 0.00 0.00 16 1013.0
20170925193003 86 311 0.0 0.0 0.00 0.00 0.00 14 1013.1
20170925192850 86 311 0.0 0.0 0.00 0.00 0.00 14 1013.1
20170925192004 86 311 0.0 0.0 0.00 0.00 0.00 15 1013.2
20170925191850 86 311 0.0 0.0 0.00 0.00 0.00 15 1013.3
20170925191004 86 311 0.0 0.0 0.00 0.00 0.00 18 1013.4
20170925190850 86 311 0.0 0.0 0.00 0.00 0.00 17 1013.4
20170925190004 86 311 0.0 0.0 0.00 0.00 0.00 19 1013.4
20170925185851 85 311 0.0 0.0 0.00 0.00 0.00 19 1013.5
20170925185004 85 311 0.0 0.0 0.00 0.00 0.00 18 1013.5
20170925184820 85 311 0.0 0.0 0.00 0.00 0.00 18 1013.6
20170925184003 85 311 0.0 7.0 0.00 0.00 0.00 20 1013.7
20170925183820 85 311 0.0 0.0 0.00 0.00 0.00 19 1013.8
20170925183004 85 171 0.0 5.0 0.00 0.00 0.00 21 1013.9
20170925182820 85 173 1.0 5.0 0.00 0.00 0.00 20 1013.9
20170925182003 84 174 0.0 5.0 0.00 0.00 0.00 20 1014.1
20170925181750 84 174 0.0 0.0 0.00 0.00 0.00 21 1014.2
20170925181003 84 174 2.0 6.0 0.00 0.00 0.00 20 1014.2
20170925180750 85 135 3.0 5.0 0.00 0.00 0.00 20 1014.3
20170925180004 85 155 0.0 0.0 0.00 0.00 0.00 22 1014.4
20170925175751 85 155 0.0 0.0 0.00 0.00 0.00 22 1014.4
20170925175003 84 155 1.0 5.0 0.00 0.00 0.00 20 1014.5
20170925174750 84 179 1.0 5.0 0.00 0.00 0.00 23 1014.6
20170925174003 84 199 0.0 6.0 0.00 0.00 0.00 25 1014.7
20170925173750 84 199 0.0 0.0 0.00 0.00 0.00 26 1014.7
20170925173004 84 149 1.0 6.0 0.00 0.00 0.00 25 1014.9
20170925172750 84 157 1.0 0.0 0.00 0.00 0.00 27 1014.9
20170925172004 84 119 0.0 0.0 0.00 0.00 0.00 30 1015.0
20170925171749 83 119 0.0 0.0 0.00 0.00 0.00 31 1015.1
20170925171004 83 119 0.0 5.0 0.00 0.00 0.00 31 1015.3
20170925170750 83 119 0.0 0.0 0.00 0.00 0.00 30 1015.3
20170925170004 83 147 1.0 6.0 0.00 0.00 0.00 31 1015.3
20170925165749 83 258 0.0 0.0 0.00 0.00 0.00 30 1015.4
20170925165004 83 258 0.0 0.0 0.00 0.00 0.00 32 1015.5
20170925164749 83 258 0.0 0.0 0.00 0.00 0.00 33 1015.5
20170925164004 82 258 0.0 0.0 0.00 0.00 0.00 34 1015.6
20170925163749 82 258 0.0 0.0 0.00 0.00 0.00 35 1015.7
20170925163004 82 258 0.0 3.0 0.00 0.00 0.00 34 1015.8
20170925162749 82 274 1.0 3.0 0.00 0.00 0.00 36 1015.8
20170925162004 82 0 0.0 0.0 0.00 0.00 0.00 37 1015.9
20170925161749 81 0 0.0 0.0 0.00 0.00 0.00 40 1015.9
20170925161003 80 0 0.0 0.0 0.00 0.00 0.00 42 1015.9
20170925160749 80 0 0.0 0.0 0.00 0.00 0.00 43 1015.9
20170925160004 80 0 0.0 0.0 0.00 0.00 0.00 41 1016.0
20170925155749 80 0 0.0 0.0 0.00 0.00 0.00 41 1016.1
20170925155004 80 0 0.0 0.0 0.00 0.00 0.00 47 1016.3
20170925154749 80 0 0.0 0.0 0.00 0.00 0.00 46 1016.3
20170925154004 79 0 0.0 0.0 0.00 0.00 0.00 43 1016.4
20170925153749 79 0 0.0 0.0 0.00 0.00 0.00 44 1016.4
20170925153004 79 0 0.0 0.0 0.00 0.00 0.00 50 1016.4
20170925152719 78 0 0.0 0.0 0.00 0.00 0.00 50 1016.4
20170925152004 78 0 0.0 0.0 0.00 0.00 0.00 50 1016.5
20170925151719 78 0 0.0 0.0 0.00 0.00 0.00 51 1016.5
20170925151004 77 0 0.0 0.0 0.00 0.00 0.00 53 1016.6
20170925150719 77 0 0.0 0.0 0.00 0.00 0.00 54 1016.7
20170925150004 77 0 0.0 0.0 0.00 0.00 0.00 56 1016.8
20170925145719 77 0 0.0 0.0 0.00 0.00 0.00 57 1016.8
20170925145004 76 0 0.0 0.0 0.00 0.00 0.00 61 1016.9
20170925144719 76 0 0.0 0.0 0.00 0.00 0.00 62 1016.9
20170925144004 75 0 0.0 0.0 0.00 0.00 0.00 65 1016.9
20170925143719 74 0 0.0 0.0 0.00 0.00 0.00 64 1017.0
20170925143003 74 0 0.0 0.0 0.00 0.00 0.00 67 1017.0
20170925142719 73 0 0.0 0.0 0.00 0.00 0.00 67 1017.0
20170925142004 73 0 0.0 0.0 0.00 0.00 0.00 69 1017.1
20170925141915 72 0 0.0 0.0 0.00 0.00 0.00 69 1017.1
20170925141719 72 0 0.0 0.0 0.00 0.00 0.00 69 1017.1
20170925141004 72 0 0.0 0.0 0.00 0.00 0.00 72 1017.2
20170925140719 71 0 0.0 0.0 0.00 0.00 0.00 72 1017.2
20170925140004 71 0 0.0 0.0 0.00 0.00 0.00 74 1017.3
20170925135718 70 0 0.0 0.0 0.00 0.00 0.00 75 1017.3
20170925135004 70 0 0.0 0.0 0.00 0.00 0.00 77 1017.4
20170925134649 69 0 0.0 0.0 0.00 0.00 0.00 80 1017.3
20170925134004 68 0 0.0 0.0 0.00 0.00 0.00 81 1017.3
20170925133719 68 0 0.0 0.0 0.00 0.00 0.00 81 1017.3
20170925133648 68 0 0.0 0.0 0.00 0.00 0.00 81 1017.3
20170925133003 67 0 0.0 0.0 0.00 0.00 0.00 81 1017.4
20170925132825 67 0 0.0 0.0 0.00 0.00 0.00 81 1017.3
20170925132731 67 0 0.0 0.0 0.00 0.00 0.00 81 1017.3
20170925132648 67 0 0.0 0.0 0.00 0.00 0.00 81 1017.3
20170925132004 67 0 0.0 0.0 0.00 0.00 0.00 82 1017.4
20170925131723 66 0 0.0 0.0 0.00 0.00 0.00 83 1017.3
20170925131648 66 0 0.0 0.0 0.00 0.00 0.00 83 1017.3
20170925131004 66 0 0.0 0.0 0.00 0.00 0.00 83 1017.2
20170925130648 65 0 0.0 0.0 0.00 0.00 0.00 83 1017.2
20170925130004 65 0 0.0 0.0 0.00 0.00 0.00 83 1017.2
20170925125648 65 0 0.0 0.0 0.00 0.00 0.00 83 1017.1
20170925125004 65 0 0.0 0.0 0.00 0.00 0.00 83 1017.1
20170925124648 65 0 0.0 0.0 0.00 0.00 0.00 83 1017.1
20170925124004 65 0 0.0 0.0 0.00 0.00 0.00 84 1017.1
20170925123619 65 0 0.0 0.0 0.00 0.00 0.00 84 1017.0
20170925123004 64 0 0.0 0.0 0.00 0.00 0.00 84 1017.0
20170925122619 64 0 0.0 0.0 0.00 0.00 0.00 84 1017.0
20170925122004 64 0 0.0 0.0 0.00 0.00 0.00 85 1017.0
20170925121618 63 0 0.0 0.0 0.00 0.00 0.00 84 1017.0
20170925121004 63 0 0.0 0.0 0.00 0.00 0.00 84 1017.0
20170925120619 63 0 0.0 0.0 0.00 0.00 0.00 84 1017.0
20170925120004 63 0 0.0 0.0 0.00 0.00 0.00 84 1017.0
20170925115618 63 0 0.0 0.0 0.00 0.00 0.00 84 1017.0
20170925115004 63 0 0.0 0.0 0.00 0.00 0.00 84 1017.0
20170925114548 63 0 0.0 0.0 0.00 0.00 0.00 84 1017.0
20170925114003 63 0 0.0 0.0 0.00 0.00 0.00 84 1016.9
20170925113548 63 0 0.0 0.0 0.00 0.00 0.00 84 1016.9
20170925113004 63 0 0.0 0.0 0.00 0.00 0.00 84 1016.9
20170925112548 63 0 0.0 0.0 0.00 0.00 0.00 84 1016.9
20170925112004 63 0 0.0 0.0 0.00 0.00 0.00 84 1016.9
20170925111548 63 0 0.0 0.0 0.00 0.00 0.00 84 1016.8
20170925111004 63 0 0.0 0.0 0.00 0.00 0.00 84 1016.8
20170925110548 63 0 0.0 0.0 0.00 0.00 0.00 84 1016.7
20170925110003 63 0 0.0 0.0 0.00 0.00 0.00 84 1016.7
20170925105548 63 0 0.0 0.0 0.00 0.00 0.00 84 1016.6
20170925105004 63 0 0.0 0.0 0.00 0.00 0.00 84 1016.7
20170925104549 63 0 0.0 0.0 0.00 0.00 0.00 83 1016.6
20170925104003 63 0 0.0 0.0 0.00 0.00 0.00 84 1016.5
20170925103548 63 0 0.0 0.0 0.00 0.00 0.00 84 1016.6
20170925103004 63 0 0.0 0.0 0.00 0.00 0.00 84 1016.5
20170925102548 63 0 0.0 0.0 0.00 0.00 0.00 83 1016.5
20170925102004 63 0 0.0 0.0 0.00 0.00 0.00 84 1016.5
20170925101548 63 0 0.0 0.0 0.00 0.00 0.00 84 1016.5
20170925101004 63 0 0.0 0.0 0.00 0.00 0.00 84 1016.5
20170925100548 63 0 0.0 0.0 0.00 0.00 0.00 84 1016.5
20170925100004 63 0 0.0 0.0 0.00 0.00 0.00 84 1016.4
20170925095548 63 0 0.0 0.0 0.00 0.00 0.00 84 1016.4
20170925095004 63 0 0.0 0.0 0.00 0.00 0.00 84 1016.4
20170925094547 63 0 0.0 0.0 0.00 0.00 0.00 84 1016.3
20170925094004 63 0 0.0 0.0 0.00 0.00 0.00 84 1016.3
20170925093547 63 0 0.0 0.0 0.00 0.00 0.00 84 1016.3
20170925093004 63 0 0.0 0.0 0.00 0.00 0.00 83 1016.3
20170925092548 63 0 0.0 0.0 0.00 0.00 0.00 83 1016.3
20170925092003 64 0 0.0 0.0 0.00 0.00 0.00 84 1016.2
20170925091547 64 0 0.0 0.0 0.00 0.00 0.00 84 1016.1
20170925091003 64 0 0.0 0.0 0.00 0.00 0.00 84 1016.2
20170925090547 64 0 0.0 0.0 0.00 0.00 0.00 83 1016.1
20170925090004 64 0 0.0 0.0 0.00 0.00 0.00 83 1016.1
20170925085547 64 0 0.0 0.0 0.00 0.00 0.00 83 1016.1
20170925085004 64 0 0.0 0.0 0.00 0.00 0.00 83 1016.1
20170925084547 64 0 0.0 0.0 0.00 0.00 0.00 83 1016.1
20170925084003 64 0 0.0 0.0 0.00 0.00 0.00 84 1016.1
20170925083547 64 0 0.0 0.0 0.00 0.00 0.00 83 1016.0
20170925083004 64 0 0.0 0.0 0.00 0.00 0.00 83 1016.0
20170925082547 64 0 0.0 0.0 0.00 0.00 0.00 83 1016.0
20170925082003 64 0 0.0 0.0 0.00 0.00 0.00 83 1016.0
20170925081548 64 0 0.0 0.0 0.00 0.00 0.00 83 1016.0
20170925081003 64 0 0.0 0.0 0.00 0.00 0.00 83 1016.0
20170925080517 64 0 0.0 0.0 0.00 0.00 0.00 83 1015.9
20170925080004 64 0 0.0 0.0 0.00 0.00 0.00 83 1016.0
20170925075850 64 0 0.0 0.0 0.00 0.00 0.00 83 1016.0
20170925075517 64 0 0.0 0.0 0.00 0.00 0.00 83 1016.0
20170925075004 64 0 0.0 0.0 0.00 0.00 0.00 83 1015.9
20170925074447 64 0 0.0 0.0 0.00 0.00 0.00 83 1015.9
20170925074004 64 0 0.0 0.0 0.00 0.00 0.00 83 1015.9
20170925073447 64 0 0.0 0.0 0.00 0.00 0.00 83 1015.9
20170925073003 64 0 0.0 0.0 0.00 0.00 0.00 82 1015.9
20170925072447 64 0 0.0 0.0 0.00 0.00 0.00 83 1016.0
20170925072001 64 0 0.0 0.0 0.00 0.00 0.00 83 1015.9
20170925071417 64 0 0.0 0.0 0.00 0.00 0.00 82 1015.9
20170925065753 65 0 0.0 0.0 0.00 0.00 0.00 82 1015.9
20170925064801 65 0 0.0 0.0 0.00 0.00 0.00 82 1016.0
20170925063831 65 0 0.0 0.0 0.00 0.00 0.00 82 1016.1
20170925063751 65 0 0.0 0.0 0.00 0.00 0.00 82 1016.1
20170925062754 65 0 0.0 0.0 0.00 0.00 0.00 82 1016.1
20170925061752 65 0 0.0 0.0 0.00 0.00 0.00 81 1016.3
20170925060723 65 0 0.0 0.0 0.00 0.00 0.00 81 1016.3
20170925055653 65 0 0.0 0.0 0.00 0.00 0.00 80 1016.3
20170925054652 66 0 0.0 0.0 0.00 0.00 0.00 80 1016.3
20170925053651 66 0 0.0 0.0 0.00 0.00 0.00 80 1016.4
20170925052755 66 0 0.0 0.0 0.00 0.00 0.00 79 1016.4
20170925052651 66 0 0.0 0.0 0.00 0.00 0.00 79 1016.4
20170925051734 66 0 0.0 0.0 0.00 0.00 0.00 79 1016.4
20170925051651 66 0 0.0 0.0 0.00 0.00 0.00 79 1016.4
20170925050705 66 0 0.0 0.0 0.00 0.00 0.00 78 1016.4
20170925045651 67 0 0.0 0.0 0.00 0.00 0.00 78 1016.4
20170925044734 67 0 0.0 0.0 0.00 0.00 0.00 78 1016.5
20170925044651 67 0 0.0 0.0 0.00 0.00 0.00 78 1016.5
20170925043725 67 0 0.0 0.0 0.00 0.00 0.00 77 1016.4
20170925043651 67 0 0.0 0.0 0.00 0.00 0.00 77 1016.4
20170925042738 67 0 0.0 0.0 0.00 0.00 0.00 76 1016.4
20170925042653 67 0 0.0 0.0 0.00 0.00 0.00 76 1016.4
20170925041650 68 0 0.0 0.0 0.00 0.00 0.00 75 1016.3
20170925040737 68 0 0.0 0.0 0.00 0.00 0.00 74 1016.3
20170925040651 68 0 0.0 0.0 0.00 0.00 0.00 74 1016.3
20170925035652 68 0 0.0 0.0 0.00 0.00 0.00 73 1016.3
20170925034650 68 0 0.0 0.0 0.00 0.00 0.00 72 1016.4
20170925033727 68 0 0.0 0.0 0.00 0.00 0.00 71 1016.4
20170925033650 68 0 0.0 0.0 0.00 0.00 0.00 71 1016.4
20170925032650 68 0 0.0 0.0 0.00 0.00 0.00 71 1016.4
20170925031623 69 0 0.0 0.0 0.00 0.00 0.00 70 1016.4
20170925030620 69 0 0.0 0.0 0.00 0.00 0.00 71 1016.4
20170925025620 69 0 0.0 0.0 0.00 0.00 0.00 71 1016.4
20170925024623 69 0 0.0 0.0 0.00 0.00 0.00 71 1016.4
20170925023621 69 0 0.0 0.0 0.00 0.00 0.00 71 1016.4
20170925022623 69 0 0.0 0.0 0.00 0.00 0.00 72 1016.4
20170925021620 69 0 0.0 0.0 0.00 0.00 0.00 72 1016.4
20170925020620 69 0 0.0 0.0 0.00 0.00 0.00 73 1016.3
20170925015551 69 0 0.0 0.0 0.00 0.00 0.00 73 1016.1
20170925014550 69 0 0.0 0.0 0.00 0.00 0.00 72 1016.0
20170925013520 70 0 0.0 0.0 0.00 0.00 0.00 70 1016.0
20170925012520 71 0 0.0 0.0 0.00 0.00 0.00 67 1015.8
20170925011520 71 0 0.0 0.0 0.00 0.00 0.00 64 1015.7
20170925010520 72 0 0.0 0.0 0.00 0.00 0.00 61 1015.7
20170925005520 72 0 0.0 0.0 0.00 0.00 0.00 58 1015.6
20170925004520 73 0 0.0 0.0 0.00 0.00 0.00 56 1015.7
20170925003520 73 0 0.0 0.0 0.00 0.00 0.00 54 1015.6
20170925002520 74 0 0.0 0.0 0.00 0.00 0.00 51 1015.5
20170925001522 74 0 0.0 0.0 0.00 0.00 0.00 47 1015.4
20170925000520 75 0 0.0 0.0 0.00 0.00 0.00 44 1015.3
20170924235520 76 0 0.0 0.0 0.00 0.00 0.00 41 1014.6
20170924234522 76 0 0.0 0.0 0.00 0.00 0.00 35 1014.3
20170924233517 78 0 0.0 0.0 0.00 0.00 0.00 34 1015.0
20170924233001 78 0 0.0 0.0 0.00 0.00 0.00 32 1015.0
20170924232517 79 1 0.0 0.0 0.00 0.00 0.00 30 1014.9
20170924231505 80 88 0.0 0.0 0.00 0.00 0.00 27 1014.8
20170924230504 80 88 0.0 0.0 0.00 0.00 0.00 25 1014.8
20170924225504 81 88 0.0 0.0 0.00 0.00 0.00 24 1014.7
20170924224505 82 88 0.0 0.0 0.00 0.00 0.00 22 1014.6
20170924223503 83 88 0.0 0.0 0.00 0.00 0.00 21 1014.6
20170924222503 83 88 0.0 0.0 0.00 0.00 0.00 20 1014.5
20170924221503 84 88 0.0 0.0 0.00 0.00 0.00 19 1014.5
20170924220503 84 88 0.0 0.0 0.00 0.00 0.00 18 1014.5
20170924215433 84 88 0.0 0.0 0.00 0.00 0.00 17 1014.5
20170924214404 84 88 0.0 0.0 0.00 0.00 0.00 16 1014.4
20170924213402 85 88 0.0 0.0 0.00 0.00 0.00 16 1014.0
20170924212402 85 88 0.0 0.0 0.00 0.00 0.00 15 1014.1
20170924211403 85 88 0.0 0.0 0.00 0.00 0.00 15 1014.4
20170924210402 85 66 0.0 0.0 0.00 0.00 0.00 15 1014.4
20170924205402 86 66 0.0 0.0 0.00 0.00 0.00 15 1014.4